Location: Laterina
(43.5167°N, 11.7167°E)
Time: 16:40:24
(UTC+00:00)

Cosmos 1707 - Pass Details

Date: 24 September 2020
Orbit: 515 x 530 km, 82.5° (Epoch: 25 October)

Event Time Altitude Azimuth Distance (km) Brightness Sun altitude
Rises 18:00:26 0° 349° (N) 2,646 6.6 -10.6°
Reaches altitude 10° 18:02:34 10° 348° (NNW) 1,753 5.7 -11.0°
Maximum altitude 18:06:24 74° 263° (W) 541 2.9 -11.7°
Drops below altitude 10° 18:10:12 10° 179° (S) 1,737 5.2 -12.4°
Sets 18:12:19 0° 177° (S) 2,620 6.1 -12.7°
